AirNav   Everest Fuels
 
 1369 users online  

7W5 Henry County Airport
Napoleon, Ohio, USA

GOING TO NAPOLEON?


FAA INFORMATION EFFECTIVE 02 JANUARY 2020

Location

FAA Identifier: 7W5
Lat/Long: 41-22-27.4000N 084-04-04.3000W
41-22.456667N 084-04.071667W
41.3742778,-84.0678611
(estimated)
Elevation: 683 ft. / 208.2 m (surveyed)
Variation: 05W (1985)
From city: 3 miles E of NAPOLEON, OH
Time zone: UTC -5 (UTC -4 during Daylight Saving Time)
Zip code: 43545

Airport Operations

Airport use: Open to the public
Activation date: 11/1971
Control tower: no
ARTCC: CLEVELAND CENTER
FSS: CLEVELAND FLIGHT SERVICE STATION
NOTAMs facility: CLE (NOTAM-D service available)
Attendance: APR-SEP MON-FRI 0800-1730, OCT-MAR MON-FRI 0800-1730
Wind indicator: lighted
Segmented circle: no
Lights: ACTVT MIRL RY 10/28; REIL RY 10/28 AND PAPI RWYS 10/28 - CTAF.
Beacon: white-green (lighted land airport)
Operates sunset to sunrise.

Airport Communications

CTAF/UNICOM: 123.0
TOLEDO APPROACH: 134.35
TOLEDO DEPARTURE: 134.35
WX AWOS-3P at USE (14 nm N): 127.375 (419-335-0775)
WX ASOS at DFI (16 nm W): 121.425 (419-658-2301)
WX ASOS at TOL (17 nm NE): PHONE 419-865-6924
WX AWOS-3 at 1G0 (20 nm E): 120.725 (419-354-1415)

Nearby radio navigation aids

VOR radial/distance  VOR name  Freq  Var
VWVr259/19.9WATERVILLE VOR/DME113.1002W
FBCr333/28.8FLAG CITY VORTAC108.2002W

 
NDB name  Hdg/Dist  Freq  Var  ID
TOPHR217/12.621905WTO - ---
ADRIAN185/29.727806WADG .- -.. --.

Airport Services

Fuel available: 100LL JET-A
Parking: hangars and tiedowns
Airframe service: MAJOR
Powerplant service: MAJOR
Bottled oxygen: LOW

Runway Information

Runway 10/28

Dimensions: 4001 x 65 ft. / 1220 x 20 m
Surface: asphalt, in poor condition
NUMEROUS OPEN CRACKS / NOT SEALED
Runway edge lights: medium intensity
RUNWAY 10  RUNWAY 28
Latitude: 41-22.517777N41-22.394432N
Longitude: 084-04.501945W084-03.642770W
Elevation: 680.7 ft.682.7 ft.
Traffic pattern: leftleft
Runway heading: 106 magnetic, 101 true286 magnetic, 281 true
Markings: nonprecision, in fair conditionnonprecision, in fair condition
Visual slope indicator: 2-light PAPI on left (3.00 degrees glide path)2-light PAPI on left (3.00 degrees glide path)
Runway end identifier lights: yesyes
Touchdown point: yes, no lightsyes, no lights
Obstructions: 5 ft. crops, 201 ft. from runway, 85 ft. right of centerline
RWY 10 +5 FT CROPS/CULTIVATED FIELD, 200 FT FM RWY 10 EXTENDING TO THLD RWY 10, 85 FT R TO 135 FT R. ALSO +6 FT CROPS/CULTIVATED FIELD, 200 FT FM RWY 10 EXTENDING TO THLD RWY 10, 135 FT L TO 200 FT L.
6 ft. crops, 201 ft. from runway, 125 ft. left of centerline

Airport Ownership and Management from official FAA records

Ownership: Publicly-owned
Owner: HENRY CO. ARPT AUTH.
10646 COUNTY RD O
NAPOLEON, OH 43545
Phone 419-599-6494
Manager: RANDY E. AMES
10646 COUNTY ROAD O
NAPOLEON, OH 43545
Phone 419-599-6494
ADDL CONTACT INFORMATION, RANDYAMES@AMESAVIATIONLTD.COM

Airport Operational Statistics

Aircraft based on the field: 18
Single engine airplanes: 17
Multi engine airplanes: 1
    
Aircraft operations: avg 43/day *
96% local general aviation
4% transient general aviation
<1% air taxi
* for 12-month period ending 02 June 2017

Additional Remarks

ATTENDANCE: WKEND ONLY BY REQ CALL 419-583-0150.
FOR CD CTC TOLEDO APCH AT 419-865-1495

Instrument Procedures

NOTE: All procedures below are presented as PDF files. If you need a reader for these files, you should download the free Adobe Reader.

NOT FOR NAVIGATION. Please procure official charts for flight.
FAA instrument procedures published for use from 02 January 2020 at 0901Z to 30 January 2020 at 0900Z.

 
IAPs - Instrument Approach Procedures
RNAV (GPS) RWY 28   download (170KB)
NOTE: Special Take-Off Minimums/Departure Procedures apply   download (164KB)

Other nearby airports with instrument procedures:

KUSE - Fulton County Airport (14 nm N)
KDFI - Defiance Memorial Airport (16 nm W)
KTOL - Toledo Express Airport (17 nm NE)
1G0 - Wood County Airport (20 nm E)
0G6 - Williams County Airport (21 nm W)
 
Loc | Ops | Rwys | IFR | FBO | Links
Com | Nav | Svcs | Stats | Notes
Area around 7W5 (Henry County Airport)
 
Road maps at: MapQuest Bing Google
 
Aerial photo
WARNING: Photo may not be current or correct
Aerial photo of 7W5 (Henry County Airport)
Photo by Roger Kellogg
Photo taken 29-Sep-2007

Do you have a better or more recent aerial photo of Henry County Airport that you would like to share? If so, please send us your photo.

 
Sectional chart

 
Airport diagram
CAUTION: Diagram may not be current
Diagram of 7W5 (Henry County Airport)
 
Airport distance calculator
Flying to Henry County Airport? Find the distance to fly.

From to 7W5

Sunrise and sunset
Times for 19-Jan-2020
 Local
(UTC-5)
 Zulu
(UTC)
Morning civil twilight07:2912:29
Sunrise07:5912:59
Sunset17:3522:35
Evening civil twilight18:0523:05

Current date and time
Zulu (UTC)  19-Jan-2020 17:52:01
Local (UTC-5)  19-Jan-2020 12:52:01
 
METAR
KUSE 
14nm N 
191735Z AUTO 27016G24KT 9SM -SN FEW055 OVC080 M10/M11 A3014 RMK AO2
KDFI 
17nm W 
191710Z AUTO 25010G20KT 10SM FEW021 SCT026 OVC090 M11/M16 A3019 RMK AO2 T11061156 $
KTOL 
17nm NE 
191652Z 27017G24KT 10SM FEW029 BKN055 OVC085 M09/M15 A3013 RMK AO2 PK WND 26027/1621 UPB17E27SNE17 SLP216 P0000 T10941150 $
KOWX 
21nm S 
191735Z AUTO 27018G25KT 5SM OVC021 M12/M16 A3021 RMK AO1
KFDY 
28nm SE 
191653Z AUTO 26020KT 9SM OVC022 M10/M14 A3016 RMK AO2 PK WND 26026/1555 UPE52 SLP223 P0000 T11001144
KDUH 
29nm NE 
191736Z AUTO 26014G20KT 10SM OVC085 M09/M13 A3013 RMK AO2 T10911133
KTDZ 
29nm NE 
191730Z AUTO 25016G23KT 10SM SCT024 BKN033 OVC085 M09/M14 A3015 RMK AO2 T10891139
TAF
KTOL 
17nm NE 
191121Z 1912/2012 26020G30KT P6SM VCSH OVC025 TEMPO 1912/1916 3SM -SHSN OVC020 FM192200 28015G25KT P6SM OVC035 FM192300 28010G20KT P6SM BKN025 FM200100 29011KT P6SM BKN035 FM200500 32005KT P6SM OVC250
NOTAMs
Click for the latest NOTAMs
NOTAMs are issued by the DoD/FAA and will open in a separate window not controlled by AirNav.

 

 
 

FBO, Fuel Providers, and Aircraft Ground Support

  
 Business Name 
 
 Contact 
 
 Services / Description 
 
Fuel Prices
 
Comments
  
Ames Aviation 419-599-6494
no information available

If you are affiliated with Ames Aviation and would like to show here your services, contact info, web link, logo, and more, click here
100LL Jet A
FS --- $4.67 
SS $5.57 --- 
 Updated 08-Jan-2020
 
   write
FS=Full service
SS=Self service
Update Fuel Prices
 

Would you like to see your business listed on this page?

 If your business provides an interesting product or service to pilots, flight crews, aircraft, or users of the Henry County Airport, you should consider listing it here.  To start the listing process, click on the button below
 
Add a business
 

Other Pages about Henry County Airport

Update a link
 
Copyright © AirNav, LLC. All rights reserved. Privacy Policy  Contact